RH
69 68 65 65 65 63 65 70 70 67 67 66 62 59 58 53 48 48 46 44 44 45 41 36 36 35 33 33 33 40 51 51 47 45 43 46 50 51 49 48 49 50
66 66 66 67 63 61 64 69 70 68 68 67 64 64 59 49 47 49 47 46 48 47 42 38 37 35 33 32 32 38 47 46 41 41 41 44 47 48 49 51 51 50
66 66 67 67 62 60 65 68 70 70 68 67 67 65 56 46 46 48 48 51 53 47 41 39 38 37 35 31 34 43 47 43 38 36 36 38 41 42 44 47 50 51
68 67 68 68 63 64 68 70 71 71 70 69 69 65 56 48 48 49 51 55 54 48 42 40 40 39 35 29 34 46 48 45 41 35 35 37 37 39 38 38 43 49
71 69 70 68 67 69 72 72 72 71 72 72 70 67 58 52 52 56 58 58 55 51 46 43 42 39 33 27 32 44 47 45 42 37 36 38 35 36 36 34 36 41
73 71 71 69 68 71 73 73 73 73 74 73 71 68 62 58 59 61 62 61 57 53 49 47 45 40 34 28 30 40 45 44 42 40 43 42 39 38 37 36 36 38
75 72 72 72 71 72 74 74 75 75 75 75 73 70 65 63 63 62 63 61 57 54 52 50 45 39 35 33 31 34 37 37 36 38 42 43 42 41 38 36 38 40
77 73 73 75 75 74 72 72 72 73 75 76 74 70 68 68 66 62 64 63 58 57 57 53 46 38 35 37 36 33 32 33 34 35 36 35 35 38 37 35 36 40
80 78 76 77 78 74 69 68 69 71 75 76 74 70 67 67 62 60 63 63 60 58 58 56 48 39 36 37 38 37 36 36 36 35 33 30 30 33 35 35 36 40
84 81 77 77 77 72 68 68 68 71 76 77 74 68 62 59 58 58 61 61 59 57 58 58 50 41 39 39 39 39 39 37 36 35 33 30 30 31 33 36 39 43
84 80 76 75 75 72 69 69 68 71 76 76 71 64 55 54 59 62 62 62 61 58 58 58 51 43 39 40 41 40 39 38 37 36 34 32 29 29 31 35 40 45
81 79 75 73 75 76 73 70 69 70 72 71 66 59 53 54 61 65 64 65 63 58 57 56 50 43 39 38 40 41 40 40 40 39 37 34 31 31 31 34 40 47
80 78 74 72 73 77 77 71 68 67 64 61 59 58 57 59 64 65 65 66 62 58 57 55 49 42 39 37 38 40 40 40 39 40 40 37 36 36 35 36 42 48
85 81 76 73 72 76 78 72 66 62 57 54 54 56 59 63 67 68 68 68 65 62 61 59 51 42 38 38 38 38 39 39 37 38 40 41 41 40 39 40 43 48
85 79 75 73 73 76 78 75 69 62 58 57 58 59 63 67 71 73 72 73 70 66 64 60 53 43 38 38 39 40 40 40 38 38 40 42 43 43 41 41 42 43
79 76 76 76 76 78 79 77 73 68 65 64 65 65 67 70 74 76 78 78 73 67 64 61 53 45 39 38 39 40 41 42 42 42 42 43 44 43 41 40 41 40
80 78 79 80 80 80 81 79 76 73 72 71 70 71 71 74 78 80 82 82 77 70 67 64 56 47 42 41 41 41 41 43 46 46 46 46 46 45 43 42 41 40
85 84 82 81 82 81 80 80 78 77 78 77 77 78 78 81 83 83 84 83 76 72 72 70 61 50 42 40 42 42 42 45 49 50 49 49 49 47 46 46 46 45
87 89 88 86 85 83 83 83 83 83 84 83 83 85 86 86 85 84 84 79 71 68 71 71 66 56 46 42 43 44 45 46 50 52 51 51 50 48 48 48 49 49
86 88 89 88 87 87 88 87 86 87 88 88 89 90 88 86 83 82 82 78 71 68 69 69 67 62 55 51 48 47 48 48 50 49 49 48 47 46 47 48 49 49
90 89 90 91 90 89 90 90 90 91 90 89 89 88 86 85 83 82 82 79 74 72 73 74 72 68 64 60 57 55 54 54 52 51 49 47 47 47 48 49 49 49
95 93 94 95 94 93 93 94 94 93 90 88 87 87 86 85 84 84 83 81 77 75 78 80 79 75 71 67 63 61 61 62 61 60 56 54 53 53 53 53 53 53
95 94 93 94 93 92 92 92 92 90 88 87 87 86 85 85 85 85 84 82 79 78 79 82 83 81 77 73 69 67 67 67 68 68 66 63 60 57 55 54 54 54
90 90 90 90 91 89 88 87 86 85 86 86 85 84 84 85 86 86 86 84 81 79 78 80 83 83 81 77 74 71 69 68 68 69 68 66 64 61 58 57 56 56
83 84 83 84 85 85 83 81 80 81 80 79 78 78 78 80 82 81 82 81 79 78 77 77 78 78 77 74 71 68 67 65 65 65 64 63 62 60 58 58 58 58
74 75 75 75 76 75 73 72 73 74 72 70 70 69 68 68 69 69 70 70 70 70 69 69 69 69 67 66 64 62 62 61 60 61 60 60 59 59 58 58 57 57